[[{"header":{"parameterUnit":"m.s-1","parameterCategory":2,"la1":30.2991,"la2":30.254,"lo1":-89.0895,"lo2":-89.0444,"dy":0.0017,"dx":0.0017,"nx":28,"ny":28,"refTime":"2024-04-15T09:00:00:Z","depth":"0","parameterNumber":2,"parameterNumberName":"U-component_of_CURRENTS"},"data":[0,0,0,0,0,0,0,0,0,0,0,0,0,0,0,0,0,0,0,0,0,0,0,0,0,0,0,0,0,0,0,0,0,0,0,0,0,0,0,0,0,0,0,0,0,0,0,0,0,0,0,0,0,0,0,0,0,0,0.2831,0.2832,0,0.292,0.2921,0.2922,0.2943,0.2943,0.2942,0.2942,0.3007,0.3009,0.3012,0,0,0,0,0,0,0,0,0,0,0,0,0,0.2753,0.2754,0.2831,0.2832,0.2833,0.2919,0.2921,0.2922,0.2944,0.2943,0.2942,0.2941,0.3006,0.3009,0.3012,0,0,0,0,0,0,0,0,0,0,0,0,0,0.2809,0.2754,0.2831,0.2854,0.2857,0.2919,0.2921,0.2922,0.2944,0.2943,0.2942,0.2941,0.3005,0.3009,0.3012,0.3051,0,0,0.3023,0.3024,0,0,0,0,0,0,0,0,0.2805,0.2811,0.285,0.2853,0.2856,0.2919,0.2917,0.2964,0.2944,0.2911,0.2942,0.2941,0.2976,0.2982,0.3001,0.3054,0.3057,0.3023,0.3025,0.3027,0.3028,0,0,0,0,0,0,0,0.2801,0.2808,0.2866,0.2851,0.2855,0.2885,0.2891,0.2927,0.2947,0.2914,0.2916,0.2926,0.2978,0.2998,0.3003,0.3058,0.3023,0.3026,0.3028,0.3029,0.321,0.3213,0,0,0,0,0,0,0.2788,0.2804,0.2864,0.2869,0.2828,0.2887,0.2894,0.29,0.2947,0.2954,0.2926,0.2926,0.2992,0.2999,0.3005,0.3094,0.3027,0.303,0.3032,0.3208,0.3211,0.3214,0,0,0,0,0,0,0.2786,0.2792,0.286,0.2839,0.2849,0.2889,0.2896,0.2902,0.2925,0.2957,0.2963,0.2942,0.2992,0.3,0.3065,0.3095,0.3031,0.3034,0.3204,0.3209,0.3212,0.3247,0,0,0,0,0,0,0.2783,0.2791,0.2792,0.2838,0.285,0.2899,0.2897,0.2905,0.2932,0.2933,0.2973,0.2978,0.2992,0.306,0.3068,0.3099,0.3037,0.3201,0.3206,0.3211,0.3242,0.3252,0.326,0,0,0,0,0,0.278,0.279,0.2791,0.2799,0.285,0.29,0.2909,0.2934,0.2934,0.295,0.2993,0.2977,0.3098,0.3065,0.3074,0.3106,0.3198,0.3205,0.3211,0.3238,0.325,0.326,0,0,0,0,0,0,0.276,0.2795,0.2797,0.2817,0.2853,0.2903,0.2924,0.2939,0.2986,0.2988,0.3013,0.3023,0.3102,0.3103,0.3066,0.3178,0.3145,0.3153,0.3163,0.3174,0.3183,0.3185,0.304,0,0,0,0,0,0.2755,0.2767,0.2808,0.2824,0.2843,0.2883,0.2906,0.2924,0.297,0.2989,0.3021,0.3067,0.3137,0.3151,0.3209,0.3256,0.3277,0.3285,0.3294,0.3301,0.3313,0.3363,0.3376,0.3234,0.3234,0.3234,0,0,0.2752,0.2772,0.2779,0.282,0.2851,0.2898,0.2895,0.2934,0.298,0.299,0.3062,0.3109,0.3165,0.3238,0.3269,0.3235,0.3361,0.3309,0.3314,0.3323,0.337,0.3384,0.3396,0.3238,0.3238,0.3237,0,0,0.276,0.2771,0.2788,0.2827,0.2872,0.2906,0.2918,0.2972,0.3,0.3072,0.3111,0.3175,0.325,0.3302,0.3338,0.3428,0.3424,0.3441,0.3462,0.351,0.3521,0.3531,0.3602,0.3618,0.3421,0.3421,0.3421,0,0.2754,0.2783,0.2803,0.2843,0.2885,0.2912,0.2961,0.3003,0.3072,0.311,0.3098,0.3252,0.3287,0.3397,0.3432,0.3446,0.3477,0.341,0.3518,0.3528,0.3538,0.3608,0.3625,0.3424,0.3423,0.3423,0.3423,0,0.278,0.2815,0.2836,0.2894,0.2943,0.2987,0.3051,0.3098,0.3131,0.3172,0.3278,0.3334,0.3416,0.3442,0.3466,0.3563,0.3569,0.3538,0.3481,0.3554,0.3624,0.3641,0.3427,0.3426,0.3425,0.3425,0,0,0.2744,0.2833,0.2841,0.2889,0.2975,0.3021,0.3106,0.3192,0.3249,0.3303,0.338,0.3493,0.3502,0.3546,0.3576,0.3611,0.3715,0.3598,0.36,0.3651,0.3844,0.3772,0.3784,0.3691,0.3694,0.3696,0.3873,0,0.276,0.2831,0.2882,0.2979,0.3033,0.3106,0.3184,0.3266,0.3328,0.3405,0.3461,0.3552,0.3546,0.3587,0.3625,0.3709,0.3758,0.3671,0.3781,0.3786,0.3697,0.38,0.3554,0.3684,0.389,0.3892,0.3894,0,0.277,0.2822,0.2899,0.3032,0.3062,0.3123,0.3255,0.3331,0.3443,0.3492,0.3568,0.3613,0.3718,0.3675,0.3827,0.3771,0.3819,0.3858,0.3865,0.3795,0.3745,0.3642,0.3707,0.3613,0.3921,0.3918,0.3917,0,0.273,0.2846,0.2904,0.2948,0.3087,0.3144,0.3223,0.3345,0.3421,0.3544,0.3605,0.371,0.3783,0.3847,0.3935,0.3891,0.4085,0.4025,0.4014,0.4011,0.3823,0.3797,0.3787,0.4127,0.4127,0.4126,0.4126,0,0.2733,0.2793,0.2884,0.2923,0.3021,0.3121,0.3228,0.3326,0.3445,0.3541,0.3633,0.3725,0.3828,0.3939,0.3983,0.4069,0.4128,0.4055,0.4055,0.3832,0.3806,0.373,0.3709,0.4133,0.4131,0.413,0.4129,0,0.2705,0.2752,0.284,0.2961,0.3004,0.3075,0.3233,0.3308,0.3427,0.3554,0.36,0.3773,0.3926,0.4026,0.4168,0.4142,0.4097,0.423,0.3977,0.3942,0.3785,0.3776,0.3682,0.3583,0.4236,0.4236,0.4235,0,0.2704,0.2732,0.2846,0.2901,0.2961,0.3069,0.3145,0.3283,0.336,0.358,0.3633,0.383,0.3938,0.413,0.4133,0.4209,0.4106,0.4022,0.3876,0.3773,0.3765,0.3634,0.3548,0.3665,0.366,0.3656,0.3653,0,0.2731,0.275,0.2826,0.2906,0.2984,0.3066,0.3174,0.322,0.3381,0.3488,0.3638,0.3742,0.3918,0.3886,0.3987,0.3987,0.3789,0.3937,0.3879,0.3371,0.3178,0.3081,0.3589,0.3615,0.3619,0.3621,0.3623,0.3625,0.2762,0.2804,0.2874,0.2949,0.3018,0.3045,0.3059,0.3159,0.325,0.3358,0.3536,0.3612,0.3638,0.3728,0.3709,0.3515,0.3577,0.337,0.3394,0.3294,0.3092,0.354,0.3522,0.3525,0.3528,0.3531,0.3533,0,0.2813,0.2852,0.2922,0.2979,0.2995,0.3029,0.3068,0.3034,0.3066,0.3212,0.3309,0.3297,0.3244,0.3238,0.3109,0.2982,0.2817,0.2908,0.2651,0.2616,0.3049,0.2914,0.2699,0.2699,0.2699,0.27,0.27,0.27,0.2852,0.2916,0.2923,0.2938,0.2946,0.2879,0.2849,0.2809,0.2846,0.2833,0.282,0.2877,0.2937,0.2861,0.2679,0.26,0.2432,0.228,0.2387,0.2672,0.2715,0.2756,0.2622,0.235,0.2349,0.1746,0.1742,0.1739]},{"header":{"parameterUnit":"m.s-1","parameterCategory":2,"la1":30.2991,"la2":30.254,"lo1":-89.0895,"lo2":-89.0444,"dy":0.0017,"dx":0.0017,"nx":28,"ny":28,"refTime":"2024-04-15T09:00:00:Z","depth":"0","parameterNumber":3,"parameterNumberName":"V-component_of_CURRENTS"},"data":[0,0,0,0,0,0,0,0,0,0,0,0,0,0,0,0,0,0,0,0,0,0,0,0,0,0,0,0,0,0,0,0,0,0,0,0,0,0,0,0,0,0,0,0,0,0,0,0,0,0,0,0,0,0,0,0,0,0,0.0113,0.0113,0,0.0083,0.0083,0.0082,0.0052,0.0052,0.0051,0.0051,-0.0002,-0.0003,-0.0004,0,0,0,0,0,0,0,0,0,0,0,0,0,0.0123,0.0123,0.0113,0.0113,0.0112,0.0083,0.0083,0.0082,0.0052,0.0052,0.0051,0.0051,-0.0001,-0.0003,-0.0004,0,0,0,0,0,0,0,0,0,0,0,0,0,0.0108,0.0123,0.0113,0.0094,0.0092,0.0083,0.0083,0.0082,0.0052,0.0052,0.0051,0.0051,-0.0001,-0.0003,-0.0004,-0.0002,0,0,-0.0009,-0.001,0,0,0,0,0,0,0,0,0.0109,0.0108,0.0097,0.0095,0.0093,0.0071,0.0067,0.0053,0.0053,0.0067,0.0051,0.005,0.0021,0.0018,0.0013,-0.0005,-0.0007,-0.0009,-0.001,-0.0011,-0.0011,0,0,0,0,0,0,0,0.011,0.0109,0.0101,0.0097,0.0094,0.008,0.0077,0.0064,0.0047,0.0066,0.0064,0.0061,0.002,0.0015,0.0012,-0.0008,-0.0009,-0.001,-0.0011,-0.0012,-0.0016,-0.0015,0,0,0,0,0,0,0.0116,0.011,0.0102,0.01,0.01,0.008,0.0077,0.0078,0.0048,0.0043,0.0061,0.006,0.0018,0.0014,0.001,0.0035,-0.0011,-0.0012,-0.0013,-0.0017,-0.0016,-0.0015,0,0,0,0,0,0,0.0117,0.0116,0.0103,0.0104,0.0102,0.0081,0.0082,0.0078,0.0073,0.0045,0.0039,0.006,0.0017,0.0012,-0.0007,0.0032,-0.0013,-0.0014,-0.0018,-0.0016,-0.0015,0.0071,0,0,0,0,0,0,0.0117,0.0116,0.012,0.0105,0.0102,0.0105,0.0083,0.0078,0.0072,0.007,0.0042,0.0036,0.0016,-0.0005,-0.0009,0.0029,-0.0015,-0.0019,-0.0017,-0.0016,0.0067,0.0075,0.0081,0,0,0,0,0,0.0118,0.013,0.0121,0.0119,0.0107,0.0106,0.0104,0.0086,0.0073,0.0078,0.0049,0.0037,0.0003,-0.0006,-0.0011,0.0028,-0.002,-0.0018,-0.0016,0.0063,0.0073,0.0081,0,0,0,0,0,0,0.014,0.0128,0.0117,0.0125,0.0118,0.0101,0.0106,0.009,0.0073,0.0067,0.0037,0.003,0.0031,0.0011,0.0002,0.003,-0.0005,-0.0004,0.0057,0.0065,0.0073,0.0103,-0.0017,0,0,0,0,0,0.0146,0.015,0.0136,0.0144,0.0143,0.0124,0.0121,0.0107,0.0089,0.0081,0.0061,0.0043,0.0036,0.0034,0.0018,0.0029,0.0011,0.0053,0.006,0.0067,0.0087,0.0072,0.008,-0.0009,-0.0009,-0.0009,0,0,0.0158,0.0151,0.0154,0.0148,0.0142,0.0154,0.0121,0.0121,0.0135,0.0078,0.0089,0.0062,0.0041,0.0053,0.0055,0.0042,0.0084,0.0069,0.0075,0.0092,0.0075,0.0083,0.0091,-0.0007,-0.0008,-0.0008,0,0,0.0187,0.0179,0.0193,0.0191,0.0182,0.0175,0.0177,0.0161,0.0161,0.0159,0.0129,0.0121,0.0106,0.0107,0.0104,0.0142,0.0117,0.0141,0.0212,0.0197,0.0205,0.0211,0.0208,0.0213,0.0153,0.0153,0.0153,0,0.0202,0.0221,0.0198,0.0212,0.0227,0.019,0.0219,0.0213,0.0192,0.0211,0.0172,0.0169,0.0139,0.0178,0.0188,0.0163,0.0149,0.0182,0.0208,0.0214,0.0219,0.0214,0.0219,0.0157,0.0157,0.0156,0.0156,0,0.0241,0.0259,0.0271,0.0283,0.0291,0.031,0.0302,0.0311,0.0301,0.0298,0.032,0.0272,0.0281,0.0269,0.0239,0.0277,0.0254,0.0213,0.0189,0.0233,0.0225,0.0229,0.0163,0.0162,0.016,0.0159,0,0,0.0273,0.0298,0.0301,0.0338,0.0336,0.0359,0.0386,0.0422,0.0465,0.043,0.0487,0.0456,0.0432,0.0427,0.0389,0.0372,0.0385,0.0316,0.0313,0.0321,0.0362,0.0333,0.0333,0.0344,0.0345,0.0346,0.0345,0,0.0319,0.0377,0.0372,0.0444,0.0485,0.0478,0.0521,0.0542,0.0545,0.0583,0.0549,0.0573,0.0494,0.0503,0.0474,0.041,0.0397,0.039,0.0312,0.0311,0.0285,0.0337,0.0342,0.034,0.0348,0.0349,0.0349,0,0.0357,0.0403,0.0478,0.0563,0.0582,0.0619,0.0704,0.0734,0.0764,0.0766,0.077,0.0733,0.0727,0.0635,0.0563,0.0561,0.0478,0.0412,0.0409,0.0358,0.0288,0.0295,0.0346,0.02,0.0354,0.0354,0.0353,0,0.0408,0.0482,0.0558,0.0579,0.0654,0.071,0.0758,0.08,0.0859,0.0887,0.0926,0.0887,0.0893,0.0778,0.0643,0.0606,0.0549,0.0477,0.0377,0.0374,0.0354,0.0347,0.0263,0.0426,0.0426,0.0426,0.0426,0,0.046,0.0525,0.0597,0.0642,0.0773,0.0791,0.0915,0.095,0.1008,0.1105,0.1033,0.1098,0.0926,0.0869,0.0709,0.0573,0.0604,0.0413,0.0379,0.0383,0.0379,0.0229,0.0148,0.0426,0.0426,0.0426,0.0426,0,0.0498,0.0531,0.0642,0.075,0.0798,0.0894,0.1028,0.1107,0.1148,0.1268,0.1289,0.1274,0.1207,0.1024,0.0857,0.0687,0.0453,0.0474,0.0498,0.0465,0.0211,0.0135,0.0024,-0.0031,0.0365,0.0365,0.0364,0,0.0525,0.058,0.0727,0.0812,0.0871,0.1008,0.11,0.1174,0.126,0.1394,0.1464,0.1446,0.1466,0.1211,0.0906,0.0641,0.0473,0.0446,0.0363,0.0222,0.0111,0.0047,0.0004,0.0373,0.0372,0.0372,0.0372,0,0.0608,0.0651,0.0751,0.0903,0.1023,0.1157,0.1298,0.1392,0.1495,0.1617,0.1762,0.1797,0.1573,0.1313,0.0931,0.0734,0.0347,0.0428,0.0278,0.0118,0.0049,-0.0028,0.0352,0.0368,0.0369,0.0369,0.0369,0.0369,0.0686,0.0768,0.0882,0.1023,0.1145,0.1287,0.1414,0.1565,0.1745,0.1944,0.1969,0.2055,0.1655,0.1149,0.0867,0.0332,0.0334,0.0148,0.0074,0.0026,-0.0046,0.0334,0.0305,0.0305,0.0305,0.0304,0.0304,0,0.0789,0.0866,0.0997,0.1159,0.1269,0.1324,0.1526,0.1655,0.1885,0.2081,0.2221,0.2058,0.1597,0.1093,0.0365,0.002,-0.009,-0.0159,-0.025,-0.0273,0.0065,0.0045,-0.0036,-0.0036,-0.0036,-0.0036,-0.0035,-0.0035,0.0853,0.0982,0.1025,0.1217,0.1323,0.149,0.1608,0.1815,0.1985,0.221,0.2264,0.2268,0.186,0.0653,-0.0145,-0.0313,-0.0524,-0.0575,-0.0674,-0.0459,-0.0436,-0.0414,-0.0453,-0.0637,-0.0637,-0.0972,-0.0975,-0.0978]}],[{"header":{"parameterUnit":"m.s-1","parameterCategory":2,"la1":30.2991,"la2":30.254,"lo1":-89.0895,"lo2":-89.0444,"dy":0.0017,"dx":0.0017,"nx":28,"ny":28,"refTime":"2024-04-15T09:00:00:Z","depth":"2","parameterNumber":2,"parameterNumberName":"U-component_of_CURRENTS"},"data":[0,0,0,0,0,0,0,0,0,0,0,0,0,0,0,0,0,0,0,0,0,0,0,0,0,0,0,0,0,0,0,0,0,0,0,0,0,0,0,0,0,0,0,0,0,0,0,0,0,0,0,0,0,0,0,0,0,0,0.2419,0.242,0,0.2496,0.2497,0.2498,0.2512,0.2512,0.2511,0.2511,0.2585,0.2587,0.259,0,0,0,0,0,0,0,0,0,0,0,0,0,0.2325,0.2326,0.2419,0.242,0.2421,0.2496,0.2497,0.2498,0.2512,0.2512,0.2511,0.2511,0.2584,0.2587,0.259,0,0,0,0,0,0,0,0,0,0,0,0,0,0.2379,0.2327,0.2419,0.2438,0.2441,0.2496,0.2497,0.2498,0.2512,0.2512,0.2511,0.251,0.2583,0.2587,0.259,0.2628,0,0,0.2601,0.2603,0,0,0,0,0,0,0,0,0.2376,0.2382,0.2434,0.2437,0.244,0.2495,0.2491,0.2542,0.2513,0.2484,0.2511,0.251,0.2556,0.2562,0.2576,0.2631,0.2634,0.2602,0.2604,0.2605,0.2606,0,0,0,0,0,0,0,0.2372,0.2379,0.2448,0.2436,0.2439,0.2458,0.2464,0.2501,0.2522,0.2486,0.2488,0.2499,0.2557,0.2572,0.2578,0.2635,0.2601,0.2605,0.2607,0.2608,0.2777,0.278,0,0,0,0,0,0,0.2364,0.2376,0.2446,0.2451,0.2407,0.246,0.2467,0.2477,0.2522,0.2528,0.25,0.2499,0.2567,0.2574,0.2581,0.2697,0.2605,0.2609,0.2611,0.2775,0.2778,0.278,0,0,0,0,0,0,0.2362,0.237,0.2443,0.2416,0.2427,0.2462,0.2474,0.2479,0.2489,0.2532,0.2538,0.2503,0.2566,0.2575,0.2597,0.2697,0.261,0.2614,0.2772,0.2776,0.2779,0.2886,0,0,0,0,0,0,0.2359,0.2368,0.2377,0.2415,0.2428,0.2456,0.2475,0.2481,0.2498,0.2498,0.2537,0.2544,0.2566,0.2592,0.2601,0.2701,0.2617,0.2769,0.2774,0.2778,0.288,0.2893,0.2904,0,0,0,0,0,0.2355,0.237,0.2377,0.2386,0.2437,0.2456,0.2463,0.2485,0.2499,0.2493,0.2521,0.2542,0.2628,0.2595,0.2606,0.2709,0.2767,0.2773,0.2778,0.2874,0.289,0.2904,0,0,0,0,0,0,0.2339,0.2374,0.2382,0.2408,0.2421,0.2458,0.2478,0.2484,0.2505,0.2524,0.2544,0.2552,0.2634,0.2631,0.2594,0.2769,0.2714,0.2721,0.2784,0.2799,0.2811,0.2801,0.262,0,0,0,0,0,0.2339,0.2354,0.2382,0.24,0.2416,0.2445,0.246,0.2478,0.2502,0.2511,0.2542,0.2593,0.2668,0.269,0.2745,0.2807,0.2807,0.2888,0.29,0.291,0.2909,0.2941,0.2955,0.2797,0.2797,0.2797,0,0,0.2336,0.236,0.2368,0.2396,0.2424,0.2457,0.2452,0.2486,0.2544,0.252,0.2603,0.2638,0.2693,0.2789,0.2826,0.2792,0.2968,0.2917,0.2926,0.2918,0.2947,0.2963,0.2976,0.2801,0.28,0.28,0,0,0.2339,0.2365,0.2379,0.2413,0.2456,0.247,0.2474,0.2518,0.2571,0.2636,0.2669,0.2719,0.2815,0.287,0.2916,0.3013,0.3038,0.3066,0.3116,0.3148,0.3161,0.3172,0.3242,0.3258,0.3063,0.3063,0.3063,0,0.2334,0.2377,0.2382,0.2428,0.2498,0.2474,0.2544,0.2577,0.2624,0.2682,0.2676,0.2829,0.2864,0.2991,0.3041,0.3048,0.3075,0.306,0.3163,0.3174,0.3184,0.3252,0.3268,0.3069,0.3068,0.3067,0.3067,0,0.2367,0.2415,0.2438,0.2493,0.2549,0.2603,0.2671,0.2686,0.2742,0.2799,0.2932,0.2968,0.3041,0.3098,0.3109,0.3224,0.323,0.3183,0.3124,0.3206,0.3273,0.3289,0.3077,0.3075,0.3073,0.3072,0,0,0.233,0.2438,0.2451,0.2502,0.2621,0.2644,0.2749,0.2833,0.2873,0.2956,0.3059,0.3192,0.319,0.3237,0.3262,0.3296,0.3411,0.3277,0.3276,0.3344,0.3524,0.3368,0.3369,0.3384,0.3386,0.3388,0.3562,0,0.2361,0.244,0.2536,0.263,0.2682,0.2765,0.2855,0.2934,0.3004,0.3066,0.316,0.3265,0.326,0.3302,0.3339,0.3389,0.3448,0.337,0.3435,0.3438,0.3285,0.3379,0.3098,0.3213,0.3577,0.3579,0.3581,0,0.2387,0.2433,0.2557,0.2695,0.2737,0.2799,0.2921,0.3019,0.3116,0.3182,0.327,0.3327,0.3435,0.3393,0.3518,0.3473,0.3516,0.3542,0.3547,0.3363,0.3306,0.318,0.3227,0.3606,0.3604,0.3602,0.3601,0,0.2332,0.2462,0.256,0.2624,0.2759,0.2841,0.2922,0.3044,0.3154,0.3256,0.3316,0.3421,0.3504,0.3547,0.3603,0.3581,0.3713,0.3679,0.3593,0.3585,0.3334,0.3297,0.3768,0.3767,0.3767,0.3767,0.3766,0,0.2358,0.2422,0.2516,0.2568,0.267,0.282,0.2954,0.3012,0.3162,0.3283,0.3376,0.3449,0.3546,0.3626,0.3645,0.3659,0.3749,0.3623,0.3611,0.3367,0.3333,0.364,0.3623,0.3773,0.3772,0.377,0.3769,0,0.2322,0.2391,0.2481,0.261,0.2654,0.2744,0.2975,0.3042,0.3182,0.3332,0.3388,0.3528,0.362,0.3689,0.3779,0.372,0.3734,0.372,0.3443,0.3392,0.3596,0.3583,0.3667,0.3663,0.3659,0.3656,0.3653,0,0.2321,0.2357,0.2481,0.2533,0.2613,0.2751,0.2846,0.3027,0.3126,0.3356,0.3414,0.3571,0.3611,0.3677,0.3609,0.3611,0.3707,0.3346,0.3222,0.3601,0.3583,0.3575,0.3567,0.2983,0.2975,0.2969,0.2964,0,0.2338,0.2384,0.2459,0.254,0.2642,0.2751,0.2902,0.2953,0.3174,0.3253,0.3359,0.3415,0.3492,0.3325,0.3323,0.3278,0.3304,0.3212,0.3692,0.3014,0.2958,0.2939,0.2954,0.2907,0.2913,0.2917,0.292,0.2922,0.2375,0.2408,0.2504,0.2584,0.2683,0.2754,0.2804,0.2883,0.2985,0.3028,0.3166,0.3113,0.3114,0.2932,0.2833,0.2772,0.3007,0.2865,0.2885,0.2912,0.2763,0.2698,0.2576,0.258,0.2583,0.2586,0.2588,0,0.2436,0.2487,0.2537,0.2642,0.2719,0.2778,0.2848,0.2796,0.2781,0.2769,0.2759,0.2489,0.2384,0.2425,0.2241,0.2211,0.22,0.2124,0.2095,0.2153,0.2205,0.2018,0.1636,0.1633,0.163,0.1627,0,0,0.2474,0.253,0.2515,0.2647,0.2726,0.276,0.2759,0.2588,0.251,0.2253,0.2154,0.2224,0.2338,0.1939,0.1881,0.174,0.1933,0.1668,0.2436,0.246,0.2508,0.2639,0.2418,0,0,0,0,0]},{"header":{"parameterUnit":"m.s-1","parameterCategory":2,"la1":30.2991,"la2":30.254,"lo1":-89.0895,"lo2":-89.0444,"dy":0.0017,"dx":0.0017,"nx":28,"ny":28,"refTime":"2024-04-15T09:00:00:Z","depth":"2","parameterNumber":3,"parameterNumberName":"V-component_of_CURRENTS"},"data":[0,0,0,0,0,0,0,0,0,0,0,0,0,0,0,0,0,0,0,0,0,0,0,0,0,0,0,0,0,0,0,0,0,0,0,0,0,0,0,0,0,0,0,0,0,0,0,0,0,0,0,0,0,0,0,0,0,0,-0.0045,-0.0045,0,-0.0087,-0.0088,-0.0089,-0.0121,-0.0121,-0.0121,-0.0121,-0.0198,-0.02,-0.0202,0,0,0,0,0,0,0,0,0,0,0,0,0,-0.0033,-0.0033,-0.0045,-0.0045,-0.0045,-0.0087,-0.0088,-0.0089,-0.0121,-0.0121,-0.0121,-0.0121,-0.0197,-0.02,-0.0202,0,0,0,0,0,0,0,0,0,0,0,0,0,-0.0056,-0.0033,-0.0045,-0.0064,-0.0066,-0.0087,-0.0088,-0.0089,-0.0121,-0.0121,-0.0121,-0.0121,-0.0197,-0.02,-0.0203,-0.0221,0,0,-0.0212,-0.0213,0,0,0,0,0,0,0,0,-0.0055,-0.0057,-0.0061,-0.0063,-0.0065,-0.0096,-0.0112,-0.0134,-0.0121,-0.0103,-0.0121,-0.0121,-0.0165,-0.0171,-0.0183,-0.0224,-0.0228,-0.0212,-0.0214,-0.0215,-0.0216,0,0,0,0,0,0,0,-0.0053,-0.0055,-0.0065,-0.0061,-0.0064,-0.0085,-0.0088,-0.0117,-0.0137,-0.0105,-0.0107,-0.0106,-0.0167,-0.018,-0.0185,-0.0229,-0.0212,-0.0215,-0.0217,-0.0218,-0.0253,-0.0252,0,0,0,0,0,0,-0.0039,-0.0054,-0.0063,-0.0066,-0.0056,-0.0084,-0.0088,-0.0089,-0.0136,-0.0142,-0.0106,-0.0108,-0.0174,-0.0181,-0.0187,-0.0174,-0.0215,-0.0218,-0.022,-0.0253,-0.0252,-0.0251,0,0,0,0,0,0,-0.0039,-0.004,-0.0062,-0.0058,-0.0062,-0.0084,-0.0085,-0.0089,-0.0096,-0.0136,-0.0143,-0.0107,-0.0175,-0.0183,-0.0219,-0.0179,-0.022,-0.0222,-0.0254,-0.0253,-0.0252,-0.0171,0,0,0,0,0,0,-0.0039,-0.004,-0.0036,-0.0057,-0.0062,-0.0063,-0.0084,-0.009,-0.0095,-0.0097,-0.0139,-0.0147,-0.0175,-0.0214,-0.0222,-0.0184,-0.0225,-0.0256,-0.0254,-0.0252,-0.0175,-0.0167,-0.0161,0,0,0,0,0,-0.0038,-0.0028,-0.0035,-0.0036,-0.0055,-0.0062,-0.0067,-0.0085,-0.0095,-0.0093,-0.0133,-0.0145,-0.0208,-0.0218,-0.0226,-0.0187,-0.0256,-0.0254,-0.0252,-0.0178,-0.0169,-0.0161,0,0,0,0,0,0,-0.002,-0.0031,-0.0039,-0.0033,-0.0042,-0.0066,-0.0065,-0.0079,-0.0108,-0.0114,-0.0154,-0.0165,-0.0175,-0.02,-0.0209,-0.0192,-0.0225,-0.0225,-0.0166,-0.0157,-0.015,-0.0112,-0.0227,0,0,0,0,0,-0.0014,-0.0009,-0.0024,-0.0018,-0.002,-0.0042,-0.0047,-0.006,-0.0087,-0.0099,-0.0129,-0.0156,-0.0174,-0.0182,-0.0209,-0.0211,-0.0232,-0.0186,-0.0178,-0.0172,-0.0147,-0.017,-0.0163,-0.0245,-0.0245,-0.0245,0,0,-0.0006,-0.0009,-0.0008,-0.0014,-0.0024,-0.0019,-0.0046,-0.0049,-0.0045,-0.0104,-0.0113,-0.0141,-0.0173,-0.0174,-0.0177,-0.0188,-0.016,-0.0169,-0.0164,-0.0141,-0.0168,-0.016,-0.0152,-0.0243,-0.0244,-0.0244,0,0,0.0016,0.0011,0.0021,0.0013,0.0006,-0.0,0.0004,-0.0017,-0.0025,-0.005,-0.0075,-0.0078,-0.0128,-0.0118,-0.0126,-0.0094,-0.0128,-0.01,-0.0024,-0.0048,-0.0041,-0.0035,-0.005,-0.0046,-0.0087,-0.0087,-0.0087,0,0.0026,0.004,0.0024,0.0029,0.004,0.0014,0.0035,0.0018,-0.0013,0.0004,-0.0045,-0.006,-0.0092,-0.0051,-0.0041,-0.0072,-0.0099,-0.0055,-0.0037,-0.0032,-0.0028,-0.0044,-0.0041,-0.0083,-0.0083,-0.0084,-0.0084,0,0.0049,0.0061,0.0069,0.0075,0.0084,0.0095,0.0083,0.0091,0.0075,0.0067,0.0083,0.0031,0.0041,0.0031,-0.0004,0.0042,0.0007,-0.0034,-0.0057,-0.0014,-0.0035,-0.0033,-0.0077,-0.0078,-0.0079,-0.008,0,0,0.0075,0.0087,0.0089,0.0117,0.0114,0.0135,0.0153,0.0189,0.0227,0.0182,0.0231,0.0199,0.0191,0.0184,0.0158,0.0139,0.0139,0.0073,0.0069,0.0064,0.0087,0.0032,0.0028,0.0087,0.0088,0.0089,0.006,0,0.0105,0.0144,0.0141,0.0196,0.0225,0.0227,0.026,0.0284,0.0282,0.0314,0.0291,0.0307,0.0243,0.0256,0.023,0.016,0.0147,0.0151,0.0043,0.004,-0.0009,0.003,0.0068,0.0043,0.0062,0.0062,0.0062,0,0.0128,0.0163,0.0222,0.0292,0.0308,0.0343,0.0432,0.0453,0.0487,0.0481,0.0497,0.0461,0.0469,0.0379,0.0303,0.0301,0.0216,0.0144,0.014,0.0068,-0.0011,0.0002,0.0045,0.0064,0.0064,0.0064,0.0064,0,0.0176,0.0225,0.0294,0.0306,0.037,0.0427,0.0476,0.0524,0.0573,0.0603,0.0637,0.0607,0.0611,0.0493,0.0349,0.0324,0.0231,0.0176,0.0056,0.0051,0.0055,0.0049,0.0125,0.0125,0.0125,0.0125,0.0125,0,0.0215,0.0267,0.033,0.0366,0.0482,0.0501,0.0621,0.0654,0.0714,0.0805,0.0745,0.0793,0.0633,0.0557,0.0399,0.0239,0.0273,0.0089,0.0045,0.0083,0.008,0.0073,0.0067,0.0124,0.0124,0.0125,0.0125,0,0.0249,0.0279,0.0369,0.0464,0.0507,0.0596,0.0722,0.0794,0.0842,0.0956,0.0977,0.0946,0.0849,0.0668,0.0483,0.0325,0.0156,0.0089,0.0147,0.0109,-0.0018,-0.0019,-0.0034,-0.0036,-0.0037,-0.0039,-0.004,0,0.0266,0.0314,0.0444,0.0514,0.0567,0.0693,0.0779,0.0857,0.0933,0.1058,0.1115,0.1073,0.1054,0.0755,0.0467,0.0194,0.0154,0.0038,-0.0003,0.001,-0.0032,-0.003,-0.0029,0.004,0.0039,0.0039,0.0039,0,0.0317,0.0365,0.0451,0.0585,0.0697,0.0814,0.0942,0.1028,0.1139,0.1245,0.1351,0.1352,0.11,0.083,0.0445,0.0258,0.0076,0.0019,0.0036,0.006,0.0073,0.0033,0.0033,0.0035,0.0036,0.0036,0.0036,0.0036,0.0361,0.0428,0.0538,0.066,0.0783,0.0912,0.1034,0.1167,0.133,0.1477,0.1477,0.1477,0.1182,0.0683,0.0372,0.0049,0.0061,-0.0063,-0.0059,-0.0055,-0.0055,-0.0048,-0.0106,-0.0107,-0.0107,-0.0108,-0.0108,0,0.0392,0.0467,0.0592,0.074,0.0859,0.0945,0.112,0.1238,0.1441,0.154,0.1615,0.1338,0.1055,0.0723,0.0253,-0.0043,-0.0047,-0.0139,-0.007,-0.0064,-0.0059,-0.0058,-0.0112,-0.0113,-0.0114,-0.0115,0,0,0.0415,0.0512,0.0564,0.0755,0.0887,0.108,0.1201,0.1376,0.1476,0.1572,0.1569,0.1489,0.1134,0.0773,0.0401,0.0152,0.0104,0.0095,0.0132,0.0264,0.0272,0.0019,0.0031,0,0,0,0,0]}],[{"header":{"parameterUnit":"m.s-1","parameterCategory":2,"la1":30.2991,"la2":30.254,"lo1":-89.0895,"lo2":-89.0444,"dy":0.0017,"dx":0.0017,"nx":28,"ny":28,"refTime":"2024-04-15T09:00:00:Z","depth":"4","parameterNumber":2,"parameterNumberName":"U-component_of_CURRENTS"},"data":[0,0,0,0,0,0,0,0,0,0,0,0,0,0,0,0,0,0,0,0,0,0,0,0,0,0,0,0,0,0,0,0,0,0,0,0,0,0,0,0,0,0,0,0,0,0,0,0,0,0,0,0,0,0,0,0,0,0,0.1252,0.1252,0,0.1253,0.1253,0.1253,0.1311,0.1313,0.1314,0.1316,0.1319,0.1318,0.1316,0,0,0,0,0,0,0,0,0,0,0,0,0,0.1253,0.1253,0.1252,0.1252,0.1252,0.1253,0.1253,0.1253,0.1311,0.1313,0.1315,0.1317,0.132,0.1318,0.1316,0,0,0,0,0,0,0,0,0,0,0,0,0,0.1252,0.1253,0.1252,0.1283,0.1285,0.1253,0.1253,0.1253,0.131,0.1313,0.1315,0.1318,0.132,0.1318,0.1316,0.1253,0,0,0.1309,0.1308,0,0,0,0,0,0,0,0,0.1252,0.1252,0.1278,0.128,0.1284,0.1286,0.1254,0.1253,0.131,0.13,0.1316,0.1319,0.1307,0.1306,0.1299,0.1253,0.1254,0.1309,0.1308,0.1307,0.1306,0,0,0,0,0,0,0,0.1252,0.1252,0.1251,0.1278,0.1281,0.128,0.1282,0.1254,0.1289,0.1301,0.1305,0.1306,0.1309,0.1301,0.13,0.1254,0.1309,0.1307,0.1306,0.1305,0.1333,0.1335,0,0,0,0,0,0,0.1254,0.1252,0.1251,0.1251,0.1275,0.1278,0.1281,0.1281,0.1289,0.1293,0.1304,0.1309,0.1304,0.1302,0.13,0.1353,0.1307,0.1305,0.1304,0.1331,0.1334,0.1336,0,0,0,0,0,0,0.1254,0.1254,0.1251,0.1253,0.1253,0.1276,0.1275,0.128,0.131,0.1292,0.1296,0.1335,0.1305,0.1303,0.1318,0.1349,0.1304,0.1302,0.1329,0.1332,0.1335,0.1378,0,0,0,0,0,0,0.1254,0.1254,0.1273,0.1253,0.1253,0.1259,0.1273,0.1278,0.1305,0.1313,0.1318,0.1319,0.1307,0.1321,0.1315,0.1345,0.13,0.1326,0.133,0.1334,0.1374,0.1382,0.1389,0,0,0,0,0,0.1254,0.1268,0.1274,0.1275,0.1273,0.126,0.126,0.1283,0.1305,0.1319,0.1333,0.1321,0.1343,0.132,0.1313,0.1343,0.1324,0.1329,0.1333,0.137,0.138,0.1389,0,0,0,0,0,0,0.1279,0.1274,0.1281,0.1294,0.129,0.1271,0.129,0.1297,0.1315,0.1337,0.1324,0.1325,0.1352,0.1343,0.1318,0.1369,0.134,0.1343,0.137,0.1379,0.1387,0.1458,0.1299,0,0,0,0,0,0.129,0.1303,0.1289,0.1302,0.1303,0.1299,0.1305,0.1318,0.1321,0.1334,0.1333,0.1347,0.1356,0.1367,0.1364,0.1373,0.1394,0.1399,0.1407,0.1413,0.1471,0.152,0.1537,0.1351,0.1351,0.1351,0,0,0.13,0.1303,0.131,0.131,0.1309,0.13,0.1311,0.1327,0.1339,0.1327,0.1354,0.1361,0.1364,0.1387,0.1401,0.139,0.1469,0.1419,0.1424,0.148,0.1526,0.1545,0.1561,0.1354,0.1353,0.1353,0,0,0.1301,0.1331,0.1329,0.1317,0.1324,0.1332,0.1343,0.1339,0.137,0.1376,0.1392,0.1441,0.1414,0.1456,0.1464,0.1515,0.1501,0.1503,0.1602,0.1646,0.1662,0.1677,0.1689,0.1704,0.1514,0.1514,0.1514,0,0.1316,0.1312,0.1328,0.1304,0.1309,0.1346,0.1338,0.136,0.1368,0.1412,0.1398,0.1462,0.1459,0.1537,0.1571,0.1535,0.1546,0.1555,0.1656,0.1672,0.1686,0.1695,0.1711,0.1517,0.1517,0.1516,0.1516,0,0.1289,0.1292,0.1291,0.1285,0.1293,0.1302,0.1323,0.1373,0.1415,0.144,0.153,0.1547,0.1608,0.1605,0.1602,0.1716,0.1682,0.1648,0.163,0.1707,0.1711,0.1727,0.1521,0.152,0.1519,0.1518,0,0,0.1299,0.1281,0.1281,0.1276,0.1292,0.1294,0.1352,0.1422,0.1494,0.1533,0.1622,0.1681,0.1739,0.1762,0.1778,0.1838,0.1925,0.1804,0.1805,0.1813,0.2008,0.186,0.1862,0.1899,0.1903,0.1906,0.1956,0,0.1281,0.1251,0.1254,0.1248,0.124,0.1298,0.1349,0.1424,0.1503,0.1596,0.1694,0.1778,0.178,0.1841,0.1901,0.1918,0.1978,0.1915,0.194,0.1942,0.1797,0.1881,0.1919,0.1968,0.1971,0.1974,0.1976,0,0.124,0.1241,0.1231,0.1254,0.1261,0.1285,0.142,0.146,0.1614,0.1681,0.1814,0.1884,0.2028,0.1998,0.2112,0.2067,0.2076,0.2079,0.2078,0.1955,0.1826,0.1887,0.2006,0.2003,0.2001,0.1999,0.1997,0,0.1234,0.1217,0.1234,0.1225,0.1265,0.1323,0.1379,0.1512,0.1579,0.1774,0.1847,0.2008,0.2082,0.2156,0.2197,0.2166,0.2279,0.2211,0.2093,0.2079,0.2176,0.216,0.2318,0.2318,0.2318,0.2318,0.2318,0,0.1195,0.1199,0.1242,0.1242,0.1306,0.1327,0.1428,0.1527,0.166,0.174,0.1907,0.1994,0.213,0.2207,0.2238,0.2215,0.2312,0.2154,0.2105,0.2185,0.217,0.2184,0.2168,0.232,0.2319,0.2319,0.2319,0,0.1146,0.1175,0.1193,0.1265,0.1295,0.1343,0.1434,0.1489,0.1641,0.1752,0.1832,0.1999,0.209,0.2192,0.2284,0.2226,0.2252,0.2224,0.2316,0.2263,0.2007,0.1993,0.2089,0.2084,0.2081,0.2078,0.2075,0,0.1108,0.111,0.1203,0.1232,0.1269,0.1335,0.1371,0.1492,0.1529,0.1732,0.1759,0.193,0.2027,0.2036,0.2142,0.2199,0.2178,0.2176,0.2112,0.2053,0.1996,0.1987,0.1978,0.2069,0.2068,0.2067,0.2066,0,0.1027,0.1084,0.1113,0.1166,0.1214,0.1241,0.1295,0.1331,0.1457,0.1606,0.169,0.1793,0.1858,0.1937,0.2001,0.2038,0.2174,0.2137,0.2144,0.2083,0.203,0.1975,0.197,0.2054,0.2056,0.2057,0.2058,0,0.0976,0.0981,0.1015,0.1055,0.109,0.1089,0.1175,0.12,0.1263,0.1487,0.1505,0.1684,0.1821,0.1852,0.1916,0.1943,0.1905,0.1853,0.1874,0.1889,0.1805,0.1707,0.1627,0,0,0,0,0,0.0891,0.0851,0.0873,0.0877,0.0902,0.0926,0.1051,0.1137,0.1284,0.1302,0.1406,0.1488,0.1598,0.1681,0.1668,0.1809,0.19,0.1785,0.1846,0.1983,0.1998,0.192,0,0,0,0,0,0,0.082,0.0811,0.0806,0.0679,0.0656,0.0652,0.0754,0.0907,0.0926,0.1124,0.1187,0.1348,0.1464,0.1549,0.1604,0.1634,0.1641,0.1895,0.1891,0.1975,0.1988,0.2,0.1925,0,0,0,0,0]},{"header":{"parameterUnit":"m.s-1","parameterCategory":2,"la1":30.2991,"la2":30.254,"lo1":-89.0895,"lo2":-89.0444,"dy":0.0017,"dx":0.0017,"nx":28,"ny":28,"refTime":"2024-04-15T09:00:00:Z","depth":"4","parameterNumber":3,"parameterNumberName":"V-component_of_CURRENTS"},"data":[0,0,0,0,0,0,0,0,0,0,0,0,0,0,0,0,0,0,0,0,0,0,0,0,0,0,0,0,0,0,0,0,0,0,0,0,0,0,0,0,0,0,0,0,0,0,0,0,0,0,0,0,0,0,0,0,0,0,0.001,0.001,0,0.0006,0.0006,0.0006,-0.0017,-0.0017,-0.0018,-0.0019,-0.0064,-0.0064,-0.0065,0,0,0,0,0,0,0,0,0,0,0,0,0,0.0008,0.0009,0.001,0.001,0.001,0.0006,0.0006,0.0006,-0.0017,-0.0017,-0.0018,-0.0019,-0.0064,-0.0064,-0.0065,0,0,0,0,0,0,0,0,0,0,0,0,0,0.0008,0.0009,0.001,-0.0002,-0.0004,0.0006,0.0006,0.0006,-0.0017,-0.0017,-0.0018,-0.0019,-0.0063,-0.0064,-0.0065,-0.0053,0,0,-0.0068,-0.0069,0,0,0,0,0,0,0,0,0.0008,0.0008,-0.0,-0.0001,-0.0003,-0.0006,-0.0011,-0.0016,-0.0016,-0.0011,-0.0019,-0.002,-0.0048,-0.005,-0.0048,-0.0055,-0.0057,-0.0068,-0.0069,-0.0069,-0.007,0,0,0,0,0,0,0,0.0008,0.0008,0.0009,-0.0,-0.0002,-0.0004,-0.0005,-0.0012,-0.0025,-0.0012,-0.0013,-0.0014,-0.0049,-0.0047,-0.0049,-0.0058,-0.0068,-0.0069,-0.007,-0.007,-0.0065,-0.0065,0,0,0,0,0,0,0.0008,0.0008,0.0009,0.0009,-0.0,-0.0003,-0.0005,-0.0004,-0.0024,-0.0028,-0.0014,-0.0015,-0.0045,-0.0048,-0.0051,-0.004,-0.0069,-0.007,-0.0071,-0.0066,-0.0065,-0.0064,0,0,0,0,0,0,0.0008,0.0008,0.0009,0.0008,0.0008,-0.0003,-0.0001,-0.0003,-0.0004,-0.0025,-0.003,-0.0013,-0.0045,-0.005,-0.0056,-0.0042,-0.0071,-0.0072,-0.0067,-0.0066,-0.0065,-0.0018,0,0,0,0,0,0,0.0008,0.0008,0.0011,0.0008,0.0008,0.0017,-0.0001,-0.0003,-0.0003,-0.0006,-0.0026,-0.0031,-0.0046,-0.0055,-0.0057,-0.0044,-0.0072,-0.0068,-0.0066,-0.0065,-0.002,-0.0015,-0.0011,0,0,0,0,0,0.0008,0.0015,0.0011,0.0011,0.0011,0.0018,0.0018,0.0007,-0.0002,0.0003,-0.0012,-0.003,-0.0048,-0.0055,-0.0058,-0.0045,-0.0068,-0.0067,-0.0065,-0.0022,-0.0016,-0.0011,0,0,0,0,0,0,0.0014,0.0013,0.0009,0.0014,0.0017,0.0013,0.0017,0.0011,0.0005,-0.0001,-0.0022,-0.0027,-0.0025,-0.0041,-0.0048,-0.0039,-0.006,-0.0059,-0.0027,-0.0021,-0.0017,-0.001,-0.0073,0,0,0,0,0,0.0018,0.0023,0.0022,0.0027,0.0029,0.0025,0.0026,0.002,0.0013,0.001,-0.0,-0.0013,-0.0018,-0.0026,-0.0031,-0.0029,-0.006,-0.0023,-0.0018,-0.0014,-0.0011,-0.005,-0.0049,-0.0059,-0.0059,-0.0059,0,0,0.002,0.0022,0.0024,0.0029,0.003,0.0042,0.0024,0.0027,0.0041,0.0006,0.0021,0.0006,-0.0012,-0.0007,-0.0008,-0.0022,-0.0026,-0.0012,-0.0008,-0.0007,-0.0048,-0.0047,-0.0047,-0.0058,-0.0058,-0.0058,0,0,0.0034,0.0032,0.0043,0.0054,0.0058,0.0053,0.0055,0.0057,0.0061,0.0073,0.0051,0.0041,0.004,0.0025,0.0018,0.0045,0.0004,0.0045,0.0068,0.003,0.003,0.003,-0.0006,-0.001,0.0042,0.0042,0.0042,0,0.0038,0.0055,0.0048,0.007,0.0083,0.0061,0.0082,0.0086,0.0086,0.0092,0.0084,0.0077,0.0058,0.0056,0.0064,0.0055,0.0025,0.0048,0.0035,0.0034,0.0033,-0.0004,-0.0009,0.0045,0.0044,0.0044,0.0044,0,0.0065,0.0085,0.0095,0.0114,0.0124,0.014,0.0143,0.0151,0.0149,0.0148,0.0155,0.0132,0.0123,0.0117,0.0099,0.0087,0.0065,0.0049,0.0019,0.0037,-0.0003,-0.0009,0.0048,0.0047,0.0047,0.0046,0,0,0.0062,0.0105,0.0111,0.0139,0.0153,0.0167,0.0187,0.0199,0.0213,0.0209,0.0227,0.0211,0.0189,0.0179,0.015,0.0114,0.008,0.008,0.0077,0.0042,-0.0007,-0.0006,-0.0013,0.0055,0.0055,0.0054,-0.0032,0,0.0088,0.0137,0.0152,0.0202,0.0228,0.0232,0.0259,0.0266,0.0264,0.0274,0.0244,0.0251,0.0216,0.0212,0.0171,0.0105,0.0066,0.0104,-0.0017,-0.002,-0.0023,-0.0018,0.0052,-0.0037,-0.0038,-0.0039,-0.004,0,0.0112,0.0145,0.0198,0.0259,0.0271,0.0298,0.0329,0.0354,0.0352,0.0352,0.0335,0.0311,0.027,0.0239,0.0129,0.0153,0.008,0.0023,0.0018,-0.0001,-0.0029,-0.0059,-0.0052,-0.0051,-0.005,-0.0049,-0.0048,0,0.0117,0.0181,0.0224,0.0248,0.0304,0.0335,0.0362,0.0375,0.041,0.0399,0.0407,0.0351,0.0329,0.0233,0.0123,0.0122,-0.0008,-0.0026,-0.0093,-0.0095,-0.0093,-0.0092,-0.0105,-0.0105,-0.0105,-0.0105,-0.0105,0,0.0143,0.0184,0.0235,0.0269,0.0334,0.0364,0.0429,0.044,0.0467,0.0503,0.0451,0.045,0.0324,0.0241,0.0133,0.0004,-0.0002,-0.0088,-0.0116,-0.007,-0.0065,-0.0097,-0.0095,-0.0108,-0.0107,-0.0107,-0.0106,0,0.0148,0.0182,0.0245,0.0313,0.0344,0.0393,0.0492,0.0533,0.0544,0.0584,0.0587,0.0519,0.0405,0.0273,0.0108,0.0024,-0.0102,-0.0148,-0.0085,-0.0108,-0.0167,-0.0162,-0.023,-0.0231,-0.0231,-0.0232,-0.0232,0,0.0156,0.0185,0.0275,0.0329,0.037,0.0454,0.0516,0.0566,0.0614,0.0626,0.0643,0.0552,0.0487,0.0261,0.0109,-0.0098,-0.0127,-0.019,-0.018,-0.016,-0.018,-0.0174,-0.0167,-0.0233,-0.0233,-0.0233,-0.0233,0,0.0174,0.0202,0.0261,0.0364,0.0444,0.0542,0.0633,0.0666,0.0718,0.072,0.0694,0.0585,0.0449,0.0268,0.0105,-0.0042,-0.0146,-0.0196,-0.0196,-0.0187,-0.0164,-0.0182,-0.0176,-0.0235,-0.0235,-0.0235,-0.0235,0,0.0194,0.0236,0.0317,0.0416,0.051,0.061,0.0654,0.0715,0.0762,0.0762,0.0745,0.0603,0.0517,0.0296,0.0148,0.0001,-0.0038,-0.0078,-0.0085,-0.0085,-0.0017,0.0036,0.0003,0,0,0,0,0,0.0223,0.0289,0.0371,0.0492,0.0577,0.064,0.0729,0.0762,0.0788,0.0779,0.0772,0.0649,0.0429,0.0329,0.0183,0.0124,-0.0072,-0.0053,-0.0124,-0.0246,-0.0243,-0.0188,0,0,0,0,0,0,0.0251,0.0334,0.0381,0.0532,0.0612,0.0724,0.0774,0.0792,0.0794,0.0783,0.0666,0.0617,0.0396,0.0512,0.0181,0.0135,0.0072,-0.0156,-0.0159,-0.0247,-0.0245,-0.0243,-0.0186,0,0,0,0,0]}]]